TimeMDT,TemperatureF,Dew PointF,Humidity,Sea Level PressureIn,VisibilityMPH,Wind Direction,Wind SpeedMPH,Gust SpeedMPH,PrecipitationIn,Events,Conditions,WindDirDegrees,DateUTC
12:53 AM,55.9,15.1,20,29.95,10.0,WNW,9.2,-,N/A,,Clear,300,2013-03-29 06:53:00
1:53 AM,57.0,18.0,22,29.93,10.0,NW,11.5,-,N/A,,Clear,310,2013-03-29 07:53:00
2:53 AM,55.9,14.0,19,29.94,10.0,NW,11.5,-,N/A,,Clear,310,2013-03-29 08:53:00
3:53 AM,54.0,10.0,17,29.93,10.0,NW,11.5,-,N/A,,Clear,310,2013-03-29 09:53:00
4:53 AM,55.0,12.9,19,29.93,10.0,NW,10.4,-,N/A,,Clear,310,2013-03-29 10:53:00
5:53 AM,54.0,12.9,20,29.96,10.0,NNW,5.8,-,N/A,,Clear,340,2013-03-29 11:53:00
6:53 AM,54.0,12.9,20,29.98,10.0,North,5.8,18.4,N/A,,Clear,350,2013-03-29 12:53:00
7:53 AM,55.9,12.9,18,30.00,10.0,NW,6.9,-,N/A,,Clear,320,2013-03-29 13:53:00
8:53 AM,62.1,12.9,15,30.01,10.0,NNW,3.5,-,N/A,,Clear,330,2013-03-29 14:53:00
9:53 AM,66.0,8.1,10,30.02,10.0,North,6.9,-,N/A,,Clear,350,2013-03-29 15:53:00
10:53 AM,69.1,16.0,13,30.00,10.0,East,12.7,-,N/A,,Clear,100,2013-03-29 16:53:00
11:53 AM,71.1,14.0,11,29.99,10.0,East,8.1,-,N/A,,Clear,100,2013-03-29 17:53:00
12:53 PM,73.9,10.9,9,29.96,10.0,North,8.1,-,N/A,,Clear,350,2013-03-29 18:53:00
1:53 PM,73.9,10.9,9,29.93,10.0,South,10.4,-,N/A,,Clear,170,2013-03-29 19:53:00
2:53 PM,73.9,10.9,9,29.90,10.0,SSE,9.2,-,N/A,,Clear,150,2013-03-29 20:53:00
3:53 PM,75.0,10.9,9,29.89,10.0,ENE,6.9,-,N/A,,Clear,60,2013-03-29 21:53:00
4:53 PM,75.9,10.9,8,29.87,10.0,West,6.9,-,N/A,,Clear,270,2013-03-29 22:53:00
5:53 PM,75.9,12.0,9,29.86,10.0,SW,9.2,-,N/A,,Clear,220,2013-03-29 23:53:00
6:53 PM,75.0,12.0,9,29.86,10.0,Calm,Calm,-,N/A,,Clear,0,2013-03-30 00:53:00
7:53 PM,70.0,12.9,11,29.88,10.0,East,6.9,-,N/A,,Partly Cloudy,90,2013-03-30 01:53:00
8:53 PM,69.1,12.9,11,29.89,10.0,Calm,Calm,-,N/A,,Clear,0,2013-03-30 02:53:00
9:53 PM,64.0,12.0,13,29.93,10.0,WNW,5.8,-,N/A,,Clear,290,2013-03-30 03:53:00
10:53 PM,63.0,12.9,14,29.93,10.0,West,9.2,-,N/A,,Clear,270,2013-03-30 04:53:00
11:53 PM,61.0,12.0,15,29.95,10.0,WNW,11.5,-,N/A,,Clear,300,2013-03-30 05:53:00